Terug naar catalogus

PRC TEST SPACECRAFT 4

ActiefWetenschapVLEO
NORAD 67689·PAYLOAD·🇨🇳 China

Gelanceerd Feb 7, 2026 vanaf Jiuquan Satellite Launch Center

Loading…

Volgende Passages (komende 24 uur)

TLE

VersSource: Space-Track

Epoch: Sep 14, 2026, 17:20 UTC

1 67689U 26024A   26257.72243008  .00000830  00000-0  10492-3 0  9998
2 67689  49.9932 215.3774 0005538  23.1387 336.9803 14.91966853 32805

Volg PRC TEST SPACECRAFT 4 in realtime met AllMySat

Download on the App Store